Year,Month,Day,Hour,Minute,Value (Times are PST for temperature in C)
2017,08,22,00,00,20.70
2017,08,22,00,01,20.70
2017,08,22,00,02,20.70
2017,08,22,00,03,20.70
2017,08,22,00,04,20.70
2017,08,22,00,05,20.70
2017,08,22,00,06,20.70
2017,08,22,00,07,20.70
2017,08,22,00,08,20.70
2017,08,22,00,09,20.70
2017,08,22,00,10,20.70
2017,08,22,00,11,20.70
2017,08,22,00,12,20.80
2017,08,22,00,13,20.80
2017,08,22,00,14,20.80
2017,08,22,00,15,20.90
2017,08,22,00,16,20.90
2017,08,22,00,17,20.90
2017,08,22,00,18,21.00
2017,08,22,00,19,21.00
2017,08,22,00,20,21.00
2017,08,22,00,21,21.10
2017,08,22,00,22,21.10
2017,08,22,00,23,21.10
2017,08,22,00,24,21.10
2017,08,22,00,25,21.10
2017,08,22,00,26,21.10
2017,08,22,00,27,21.10
2017,08,22,00,28,21.10
2017,08,22,00,29,21.10
2017,08,22,00,30,21.10
2017,08,22,00,31,21.10
2017,08,22,00,32,21.10
2017,08,22,00,33,21.10
2017,08,22,00,34,21.20
2017,08,22,00,35,21.20
2017,08,22,00,36,21.20
2017,08,22,00,37,21.20
2017,08,22,00,38,21.20
2017,08,22,00,39,21.20
2017,08,22,00,40,21.20
2017,08,22,00,41,21.20
2017,08,22,00,42,21.20
2017,08,22,00,43,21.30
2017,08,22,00,44,21.30
2017,08,22,00,45,21.30
2017,08,22,00,46,21.30
2017,08,22,00,47,21.30
2017,08,22,00,48,21.30
2017,08,22,00,49,21.30
2017,08,22,00,50,21.30
2017,08,22,00,51,21.30
2017,08,22,00,52,21.30
2017,08,22,00,53,21.40
2017,08,22,00,54,21.40
2017,08,22,00,55,21.40
2017,08,22,00,56,21.40
2017,08,22,00,57,21.40
2017,08,22,00,58,21.40
2017,08,22,00,59,21.40
2017,08,22,01,00,21.50
2017,08,22,01,01,21.50
2017,08,22,01,02,21.50
2017,08,22,01,03,21.50
2017,08,22,01,04,21.50
2017,08,22,01,05,21.60
2017,08,22,01,06,21.60
2017,08,22,01,07,21.60
2017,08,22,01,08,21.60
2017,08,22,01,09,21.60
2017,08,22,01,10,21.60
2017,08,22,01,11,21.60
2017,08,22,01,12,21.60
2017,08,22,01,13,21.70
2017,08,22,01,14,21.70
2017,08,22,01,15,21.70
2017,08,22,01,16,21.70
2017,08,22,01,17,21.70
2017,08,22,01,18,21.70
2017,08,22,01,19,21.70
2017,08,22,01,20,21.70
2017,08,22,01,21,21.80
2017,08,22,01,22,21.80
2017,08,22,01,23,21.80
2017,08,22,01,24,21.80
2017,08,22,01,25,21.80
2017,08,22,01,26,21.80
2017,08,22,01,27,21.80
2017,08,22,01,28,21.80
2017,08,22,01,29,21.80
2017,08,22,01,30,21.80
2017,08,22,01,31,21.80
2017,08,22,01,32,21.80
2017,08,22,01,33,21.80
2017,08,22,01,34,21.80
2017,08,22,01,35,21.70
2017,08,22,01,36,21.70
2017,08,22,01,37,21.70
2017,08,22,01,38,21.70
2017,08,22,01,39,21.70
2017,08,22,01,40,21.70
2017,08,22,01,41,21.70
2017,08,22,01,42,21.70
2017,08,22,01,43,21.70
2017,08,22,01,44,21.70
2017,08,22,01,45,21.70
2017,08,22,01,46,21.70
2017,08,22,01,47,21.60
2017,08,22,01,48,21.60
2017,08,22,01,49,21.60
2017,08,22,01,50,21.60
2017,08,22,01,51,21.60
2017,08,22,01,52,21.60
2017,08,22,01,53,21.60
2017,08,22,01,54,21.60
2017,08,22,01,55,21.60
2017,08,22,01,56,21.60
2017,08,22,01,57,21.60
2017,08,22,01,58,21.60
2017,08,22,01,59,21.60
2017,08,22,02,00,21.60
2017,08,22,02,01,21.60
2017,08,22,02,02,21.50
2017,08,22,02,03,21.50
2017,08,22,02,04,21.50
2017,08,22,02,05,21.50
2017,08,22,02,06,21.50
2017,08,22,02,07,21.50
2017,08,22,02,08,21.50
2017,08,22,02,09,21.50
2017,08,22,02,10,21.50
2017,08,22,02,11,21.50
2017,08,22,02,12,21.50
2017,08,22,02,13,21.40
2017,08,22,02,14,21.40
2017,08,22,02,15,21.40
2017,08,22,02,16,21.40
2017,08,22,02,17,21.30
2017,08,22,02,18,21.30
2017,08,22,02,19,21.30
2017,08,22,02,20,21.30
2017,08,22,02,21,21.30
2017,08,22,02,22,21.20
2017,08,22,02,23,21.20
2017,08,22,02,24,21.20
2017,08,22,02,25,21.10
2017,08,22,02,26,21.10
2017,08,22,02,27,21.10
2017,08,22,02,28,21.10
2017,08,22,02,29,21.00
2017,08,22,02,30,21.00
2017,08,22,02,31,20.90
2017,08,22,02,32,20.90
2017,08,22,02,33,20.90
2017,08,22,02,34,20.90
2017,08,22,02,35,20.90
2017,08,22,02,36,20.80
2017,08,22,02,37,20.80
2017,08,22,02,38,20.80
2017,08,22,02,39,20.80
2017,08,22,02,40,20.80
2017,08,22,02,41,20.80
2017,08,22,02,42,20.80
2017,08,22,02,43,20.80
2017,08,22,02,44,20.80
2017,08,22,02,45,20.80
2017,08,22,02,46,20.80
2017,08,22,02,47,20.80
2017,08,22,02,48,20.80
2017,08,22,02,49,20.80
2017,08,22,02,50,20.80
2017,08,22,02,51,20.80
2017,08,22,02,52,20.80
2017,08,22,02,53,20.80
2017,08,22,02,54,20.80
2017,08,22,02,55,20.80
2017,08,22,02,56,20.80
2017,08,22,02,57,20.80
2017,08,22,02,58,20.80
2017,08,22,02,59,20.80
2017,08,22,03,00,20.80
2017,08,22,03,01,20.80
2017,08,22,03,02,20.80
2017,08,22,03,03,20.80
2017,08,22,03,04,20.80
2017,08,22,03,05,20.80
2017,08,22,03,06,20.80
2017,08,22,03,07,20.80
2017,08,22,03,08,20.80
2017,08,22,03,09,20.80
2017,08,22,03,10,20.80
2017,08,22,03,11,20.80
2017,08,22,03,12,20.80
2017,08,22,03,13,20.70
2017,08,22,03,14,20.70
2017,08,22,03,15,20.70
2017,08,22,03,16,20.70
2017,08,22,03,17,20.70
2017,08,22,03,18,20.70
2017,08,22,03,19,20.70
2017,08,22,03,20,20.70
2017,08,22,03,21,20.70
2017,08,22,03,22,20.70
2017,08,22,03,23,20.70
2017,08,22,03,24,20.70
2017,08,22,03,25,20.70
2017,08,22,03,26,20.70
2017,08,22,03,27,20.70
2017,08,22,03,28,20.70
2017,08,22,03,29,20.70
2017,08,22,03,30,20.70
2017,08,22,03,31,20.70
2017,08,22,03,32,20.70
2017,08,22,03,33,20.70
2017,08,22,03,34,20.70
2017,08,22,03,35,20.70
2017,08,22,03,36,20.70
2017,08,22,03,37,20.70
2017,08,22,03,38,20.70
2017,08,22,03,39,20.70
2017,08,22,03,40,20.70
2017,08,22,03,41,20.70
2017,08,22,03,42,20.70
2017,08,22,03,43,20.70
2017,08,22,03,44,20.70
2017,08,22,03,45,20.70
2017,08,22,03,46,20.70
2017,08,22,03,47,20.70
2017,08,22,03,48,20.70
2017,08,22,03,49,20.70
2017,08,22,03,50,20.70
2017,08,22,03,51,20.70
2017,08,22,03,52,20.70
2017,08,22,03,53,20.70
2017,08,22,03,54,20.70
2017,08,22,03,55,20.70
2017,08,22,03,56,20.70
2017,08,22,03,57,20.70
2017,08,22,03,58,20.70
2017,08,22,03,59,20.70
2017,08,22,04,00,20.70
2017,08,22,04,01,20.70
2017,08,22,04,02,20.70
2017,08,22,04,03,20.80
2017,08,22,04,04,20.70
2017,08,22,04,05,20.70
2017,08,22,04,06,20.70
2017,08,22,04,07,20.70
2017,08,22,04,08,20.70
2017,08,22,04,09,20.70
2017,08,22,04,10,20.70
2017,08,22,04,11,20.70
2017,08,22,04,12,20.70
2017,08,22,04,13,20.70
2017,08,22,04,14,20.70
2017,08,22,04,15,20.70
2017,08,22,04,16,20.70
2017,08,22,04,17,20.70
2017,08,22,04,18,20.60
2017,08,22,04,19,20.70
2017,08,22,04,20,20.70
2017,08,22,04,21,20.70
2017,08,22,04,22,20.60
2017,08,22,04,23,20.60
2017,08,22,04,24,20.60
2017,08,22,04,25,20.60
2017,08,22,04,26,20.60
2017,08,22,04,27,20.60
2017,08,22,04,28,20.60
2017,08,22,04,29,20.60
2017,08,22,04,30,20.60
2017,08,22,04,31,20.60
2017,08,22,04,32,20.60
2017,08,22,04,33,20.60
2017,08,22,04,34,20.60
2017,08,22,04,35,20.60
2017,08,22,04,36,20.60
2017,08,22,04,37,20.60
2017,08,22,04,38,20.60
2017,08,22,04,39,20.60
2017,08,22,04,40,20.60
2017,08,22,04,41,20.60
2017,08,22,04,42,20.60
2017,08,22,04,43,20.60
2017,08,22,04,44,20.60
2017,08,22,04,45,20.60
2017,08,22,04,46,20.60
2017,08,22,04,47,20.60
2017,08,22,04,48,20.60
2017,08,22,04,49,20.60
2017,08,22,04,50,20.70
2017,08,22,04,51,20.70
2017,08,22,04,52,20.70
2017,08,22,04,53,20.70
2017,08,22,04,54,20.70
2017,08,22,04,55,20.70
2017,08,22,04,56,20.70
2017,08,22,04,57,20.70
2017,08,22,04,58,20.70
2017,08,22,04,59,20.70
2017,08,22,05,00,20.70
2017,08,22,05,01,20.70
2017,08,22,05,02,20.70
2017,08,22,05,03,20.70
2017,08,22,05,04,20.70
2017,08,22,05,05,20.70
2017,08,22,05,06,20.70
2017,08,22,05,07,20.70
2017,08,22,05,08,20.70
2017,08,22,05,09,20.70
2017,08,22,05,10,20.70
2017,08,22,05,11,20.70
2017,08,22,05,12,20.70
2017,08,22,05,13,20.80
2017,08,22,05,14,20.80
2017,08,22,05,15,20.80
2017,08,22,05,16,20.80
2017,08,22,05,17,20.80
2017,08,22,05,18,20.80
2017,08,22,05,19,20.80
2017,08,22,05,20,20.80
2017,08,22,05,21,20.80
2017,08,22,05,22,20.80
2017,08,22,05,23,20.80
2017,08,22,05,24,20.80
2017,08,22,05,25,20.80
2017,08,22,05,26,20.80
2017,08,22,05,27,20.80
2017,08,22,05,28,20.80
2017,08,22,05,29,20.80
2017,08,22,05,30,20.80
2017,08,22,05,31,20.80
2017,08,22,05,32,20.80
2017,08,22,05,33,20.80
2017,08,22,05,34,20.80
2017,08,22,05,35,20.80
2017,08,22,05,36,20.80
2017,08,22,05,37,20.80
2017,08,22,05,38,20.80
2017,08,22,05,39,20.80
2017,08,22,05,40,20.70
2017,08,22,05,41,20.70
2017,08,22,05,42,20.70
2017,08,22,05,43,20.70
2017,08,22,05,44,20.70
2017,08,22,05,45,20.70
2017,08,22,05,46,20.70
2017,08,22,05,47,20.70
2017,08,22,05,48,20.70
2017,08,22,05,49,20.70
2017,08,22,05,50,20.70
2017,08,22,05,51,20.70
2017,08,22,05,52,20.70
2017,08,22,05,53,20.70
2017,08,22,05,54,20.70
2017,08,22,05,55,20.60
2017,08,22,05,56,20.60
2017,08,22,05,57,20.60
2017,08,22,05,58,20.60
2017,08,22,05,59,20.60
2017,08,22,06,00,20.60
2017,08,22,06,01,20.60
2017,08,22,06,02,20.60
2017,08,22,06,03,20.60
2017,08,22,06,04,20.60
2017,08,22,06,05,20.60
2017,08,22,06,06,20.60
2017,08,22,06,07,20.60
2017,08,22,06,08,20.60
2017,08,22,06,09,20.60
2017,08,22,06,10,20.60
2017,08,22,06,11,20.60
2017,08,22,06,12,20.60
2017,08,22,06,13,20.50
2017,08,22,06,14,20.50
2017,08,22,06,15,20.40
2017,08,22,06,16,20.40
2017,08,22,06,17,20.30
2017,08,22,06,18,20.30
2017,08,22,06,19,20.20
2017,08,22,06,20,20.20
2017,08,22,06,21,20.20
2017,08,22,06,22,20.10
2017,08,22,06,23,20.10
2017,08,22,06,24,20.00
2017,08,22,06,25,20.00
2017,08,22,06,26,19.90
2017,08,22,06,27,19.90
2017,08,22,06,28,19.90
2017,08,22,06,29,19.80
2017,08,22,06,30,19.80
2017,08,22,06,31,19.80
2017,08,22,06,32,19.80
2017,08,22,06,33,19.80
2017,08,22,06,34,19.70
2017,08,22,06,35,19.70
2017,08,22,06,36,19.70
2017,08,22,06,37,19.70
2017,08,22,06,38,19.70
2017,08,22,06,39,19.70
2017,08,22,06,40,19.70
2017,08,22,06,41,19.70
2017,08,22,06,42,19.70
2017,08,22,06,43,19.70
2017,08,22,06,44,19.70
2017,08,22,06,45,19.70
2017,08,22,06,46,19.70
2017,08,22,06,47,19.70
2017,08,22,06,48,19.70
2017,08,22,06,49,19.70
2017,08,22,06,50,19.70
2017,08,22,06,51,19.70
2017,08,22,06,52,19.70
2017,08,22,06,53,19.80
2017,08,22,06,54,19.80
2017,08,22,06,55,19.80
2017,08,22,06,56,19.80
2017,08,22,06,57,19.80
2017,08,22,06,58,19.80
2017,08,22,06,59,19.90
2017,08,22,07,00,19.90
2017,08,22,07,01,19.90
2017,08,22,07,02,19.90
2017,08,22,07,03,19.90
2017,08,22,07,04,19.90
2017,08,22,07,05,19.90
2017,08,22,07,06,20.00
2017,08,22,07,07,20.00
2017,08,22,07,08,20.00
2017,08,22,07,09,20.00
2017,08,22,07,10,20.00
2017,08,22,07,11,20.00
2017,08,22,07,12,20.00
2017,08,22,07,13,20.00
2017,08,22,07,14,20.00
2017,08,22,07,15,20.00
2017,08,22,07,16,20.00
2017,08,22,07,17,20.10
2017,08,22,07,18,20.10
2017,08,22,07,19,20.10
2017,08,22,07,20,20.10
2017,08,22,07,21,20.10
2017,08,22,07,22,20.10
2017,08,22,07,23,20.10
2017,08,22,07,24,20.10
2017,08,22,07,25,20.10
2017,08,22,07,26,20.10
2017,08,22,07,27,20.10
2017,08,22,07,28,20.10
2017,08,22,07,29,20.10
2017,08,22,07,30,20.20
2017,08,22,07,31,20.20
2017,08,22,07,32,20.20
2017,08,22,07,33,20.20
2017,08,22,07,34,20.20
2017,08,22,07,35,20.20
2017,08,22,07,36,20.20
2017,08,22,07,37,20.20
2017,08,22,07,38,20.20
2017,08,22,07,39,20.20
2017,08,22,07,40,20.30
2017,08,22,07,41,20.30
2017,08,22,07,42,20.30
2017,08,22,07,43,20.30
2017,08,22,07,44,20.30
2017,08,22,07,45,20.30
2017,08,22,07,46,20.30
2017,08,22,07,47,20.30
2017,08,22,07,48,20.30
2017,08,22,07,49,20.30
2017,08,22,07,50,20.30
2017,08,22,07,51,20.30
2017,08,22,07,52,20.30
2017,08,22,07,53,20.30
2017,08,22,07,54,20.30
2017,08,22,07,55,20.30
2017,08,22,07,56,20.30
2017,08,22,07,57,20.30
2017,08,22,07,58,20.30
2017,08,22,07,59,20.30
2017,08,22,08,00,20.30
2017,08,22,08,01,20.30
2017,08,22,08,02,20.30
2017,08,22,08,03,20.30
2017,08,22,08,04,20.20
2017,08,22,08,05,20.20
2017,08,22,08,06,20.20
2017,08,22,08,07,20.30
2017,08,22,08,08,20.30
2017,08,22,08,09,20.30
2017,08,22,08,10,20.30
2017,08,22,08,11,20.30
2017,08,22,08,12,20.30
2017,08,22,08,13,20.30
2017,08,22,08,14,20.30
2017,08,22,08,15,20.40
2017,08,22,08,16,20.40
2017,08,22,08,17,20.40
2017,08,22,08,18,20.40
2017,08,22,08,19,20.50
2017,08,22,08,20,20.50
2017,08,22,08,21,20.50
2017,08,22,08,22,20.60
2017,08,22,08,23,20.60
2017,08,22,08,24,20.60
2017,08,22,08,25,20.70
2017,08,22,08,26,20.70
2017,08,22,08,27,20.70
2017,08,22,08,28,20.80
2017,08,22,08,29,20.80
2017,08,22,08,30,20.80
2017,08,22,08,31,20.90
2017,08,22,08,32,20.90
2017,08,22,08,33,21.00
2017,08,22,08,34,21.10
2017,08,22,08,35,21.10
2017,08,22,08,36,21.10
2017,08,22,08,37,21.10
2017,08,22,08,38,21.20
2017,08,22,08,39,21.20
2017,08,22,08,40,21.20
2017,08,22,08,41,21.10
2017,08,22,08,42,21.10
2017,08,22,08,43,21.10
2017,08,22,08,44,21.10
2017,08,22,08,45,21.10
2017,08,22,08,46,21.10
2017,08,22,08,47,21.10
2017,08,22,08,48,21.10
2017,08,22,08,49,21.10
2017,08,22,08,50,21.10
2017,08,22,08,51,21.10
2017,08,22,08,52,21.20
2017,08,22,08,53,21.20
2017,08,22,08,54,21.20
2017,08,22,08,55,21.20
2017,08,22,08,56,21.20
2017,08,22,08,57,21.20
2017,08,22,08,58,21.20
2017,08,22,08,59,21.20
2017,08,22,09,00,21.20
2017,08,22,09,01,21.20
2017,08,22,09,02,21.20
2017,08,22,09,03,21.30
2017,08,22,09,04,21.30
2017,08,22,09,05,21.30
2017,08,22,09,06,21.30
2017,08,22,09,07,21.40
2017,08,22,09,08,21.40
2017,08,22,09,09,21.50
2017,08,22,09,10,21.50
2017,08,22,09,11,21.50
2017,08,22,09,12,21.60
2017,08,22,09,13,21.60
2017,08,22,09,14,21.60
2017,08,22,09,15,21.60
2017,08,22,09,16,21.60
2017,08,22,09,17,21.60
2017,08,22,09,18,21.70
2017,08,22,09,19,21.70
2017,08,22,09,20,21.70
2017,08,22,09,21,21.80
2017,08,22,09,22,21.80
2017,08,22,09,23,21.90
2017,08,22,09,24,21.90
2017,08,22,09,25,22.00
2017,08,22,09,26,22.10
2017,08,22,09,27,22.20
2017,08,22,09,28,22.30
2017,08,22,09,29,22.30
2017,08,22,09,30,22.40
2017,08,22,09,31,22.40
2017,08,22,09,32,22.40
2017,08,22,09,33,22.50
2017,08,22,09,34,22.50
2017,08,22,09,35,22.60
2017,08,22,09,36,22.60
2017,08,22,09,37,22.60
2017,08,22,09,38,22.70
2017,08,22,09,39,22.70
2017,08,22,09,40,22.70
2017,08,22,09,41,22.80
2017,08,22,09,42,22.80
2017,08,22,09,43,22.80
2017,08,22,09,44,22.90
2017,08,22,09,45,22.90
2017,08,22,09,46,22.90
2017,08,22,09,47,23.00
2017,08,22,09,48,23.00
2017,08,22,09,49,23.00
2017,08,22,09,50,23.00
2017,08,22,09,51,23.10
2017,08,22,09,52,23.10
2017,08,22,09,53,23.10
2017,08,22,09,54,23.10
2017,08,22,09,55,23.20
2017,08,22,09,56,23.20
2017,08,22,09,57,23.20
2017,08,22,09,58,23.30
2017,08,22,09,59,23.30
2017,08,22,10,00,23.40
2017,08,22,10,01,23.50
2017,08,22,10,02,23.60
2017,08,22,10,03,23.70
2017,08,22,10,04,23.70
2017,08,22,10,05,23.80
2017,08,22,10,06,23.90
2017,08,22,10,07,24.00
2017,08,22,10,08,24.10
2017,08,22,10,09,24.20
2017,08,22,10,10,24.30
2017,08,22,10,11,24.40
2017,08,22,10,12,24.40
2017,08,22,10,13,24.50
2017,08,22,10,14,24.60
2017,08,22,10,15,24.70
2017,08,22,10,16,24.70
2017,08,22,10,17,24.70
2017,08,22,10,18,24.80
2017,08,22,10,19,24.80
2017,08,22,10,20,24.80
2017,08,22,10,21,24.80
2017,08,22,10,22,24.80
2017,08,22,10,23,24.80
2017,08,22,10,24,24.70
2017,08,22,10,25,24.70
2017,08,22,10,26,24.70
2017,08,22,10,27,24.70
2017,08,22,10,28,24.70
2017,08,22,10,29,24.70
2017,08,22,10,30,24.70
2017,08,22,10,31,24.70
2017,08,22,10,32,24.70
2017,08,22,10,33,24.70
2017,08,22,10,34,24.70
2017,08,22,10,35,24.70
2017,08,22,10,36,24.70
2017,08,22,10,37,24.60
2017,08,22,10,38,24.60
2017,08,22,10,39,24.60
2017,08,22,10,40,24.60
2017,08,22,10,41,24.60
2017,08,22,10,42,24.60
2017,08,22,10,43,24.60
2017,08,22,10,44,24.60
2017,08,22,10,45,24.60
2017,08,22,10,46,24.60
2017,08,22,10,47,24.60
2017,08,22,10,48,24.60
2017,08,22,10,49,24.70
2017,08,22,10,50,24.70
2017,08,22,10,51,24.70
2017,08,22,10,52,24.80
2017,08,22,10,53,24.80
2017,08,22,10,54,24.90
2017,08,22,10,55,24.90
2017,08,22,10,56,25.00
2017,08,22,10,57,25.00
2017,08,22,10,58,24.90
2017,08,22,10,59,24.90
2017,08,22,11,00,24.90
2017,08,22,11,01,24.90
2017,08,22,11,02,24.90
2017,08,22,11,03,25.00
2017,08,22,11,04,25.10
2017,08,22,11,05,25.20
2017,08,22,11,06,25.20
2017,08,22,11,07,25.30
2017,08,22,11,08,25.30
2017,08,22,11,09,25.30
2017,08,22,11,10,25.40
2017,08,22,11,11,25.40
2017,08,22,11,12,25.40
2017,08,22,11,13,25.50
2017,08,22,11,14,25.60
2017,08,22,11,15,25.60
2017,08,22,11,16,25.60
2017,08,22,11,17,25.60
2017,08,22,11,18,25.50
2017,08,22,11,19,25.40
2017,08,22,11,20,25.40
2017,08,22,11,21,25.30
2017,08,22,11,22,25.30
2017,08,22,11,23,25.30
2017,08,22,11,24,25.30
2017,08,22,11,25,25.30
2017,08,22,11,26,25.30
2017,08,22,11,27,25.30
2017,08,22,11,28,25.30
2017,08,22,11,29,25.30
2017,08,22,11,30,25.30
2017,08,22,11,31,25.20
2017,08,22,11,32,25.20
2017,08,22,11,33,25.20
2017,08,22,11,34,25.20
2017,08,22,11,35,25.20
2017,08,22,11,36,25.10
2017,08,22,11,37,25.10
2017,08,22,11,38,25.10
2017,08,22,11,39,25.00
2017,08,22,11,40,25.00
2017,08,22,11,41,24.90
2017,08,22,11,42,24.90
2017,08,22,11,43,24.80
2017,08,22,11,44,24.80
2017,08,22,11,45,24.90
2017,08,22,11,46,24.80
2017,08,22,11,47,24.80
2017,08,22,11,48,24.80
2017,08,22,11,49,24.80
2017,08,22,11,50,24.80
2017,08,22,11,51,24.80
2017,08,22,11,52,24.80
2017,08,22,11,53,24.80
2017,08,22,11,54,24.80
2017,08,22,11,55,24.80
2017,08,22,11,56,24.90
2017,08,22,11,57,25.00
2017,08,22,11,58,25.10
2017,08,22,11,59,25.20
2017,08,22,12,00,25.20
2017,08,22,12,01,25.30
2017,08,22,12,02,25.30
2017,08,22,12,03,25.30
2017,08,22,12,04,25.30
2017,08,22,12,05,25.30
2017,08,22,12,06,25.30
2017,08,22,12,07,25.30
2017,08,22,12,08,25.30
2017,08,22,12,09,25.30
2017,08,22,12,10,25.30
2017,08,22,12,11,25.30
2017,08,22,12,12,25.30
2017,08,22,12,13,25.40
2017,08,22,12,14,25.40
2017,08,22,12,15,25.40
2017,08,22,12,16,25.50
2017,08,22,12,17,25.50
2017,08,22,12,18,25.50
2017,08,22,12,19,25.40
2017,08,22,12,20,25.40
2017,08,22,12,21,25.30
2017,08,22,12,22,25.20
2017,08,22,12,23,25.20
2017,08,22,12,24,25.20
2017,08,22,12,25,25.10
2017,08,22,12,26,25.10
2017,08,22,12,27,25.10
2017,08,22,12,28,25.10
2017,08,22,12,29,25.10
2017,08,22,12,30,25.10
2017,08,22,12,31,25.10
2017,08,22,12,32,25.10
2017,08,22,12,33,25.20
2017,08,22,12,34,25.30
2017,08,22,12,35,25.40
2017,08,22,12,36,25.60
2017,08,22,12,37,25.60
2017,08,22,12,38,25.70
2017,08,22,12,39,25.70
2017,08,22,12,40,25.70
2017,08,22,12,41,25.70
2017,08,22,12,42,25.70
2017,08,22,12,43,25.60
2017,08,22,12,44,25.60
2017,08,22,12,45,25.50
2017,08,22,12,46,25.40
2017,08,22,12,47,25.40
2017,08,22,12,48,25.40
2017,08,22,12,49,25.40
2017,08,22,12,50,25.40
2017,08,22,12,51,25.40
2017,08,22,12,52,25.50
2017,08,22,12,53,25.50
2017,08,22,12,54,25.60
2017,08,22,12,55,25.60
2017,08,22,12,56,25.60
2017,08,22,12,57,25.60
2017,08,22,12,58,25.50
2017,08,22,12,59,25.50
2017,08,22,13,00,25.50
2017,08,22,13,01,25.50
2017,08,22,13,02,25.50
2017,08,22,13,03,25.60
2017,08,22,13,04,25.70
2017,08,22,13,05,25.80
2017,08,22,13,06,25.90
2017,08,22,13,07,25.90
2017,08,22,13,08,26.00
2017,08,22,13,09,26.00
2017,08,22,13,10,25.90
2017,08,22,13,11,25.90
2017,08,22,13,12,26.00
2017,08,22,13,13,26.00
2017,08,22,13,14,26.00
2017,08,22,13,15,26.00
2017,08,22,13,16,26.00
2017,08,22,13,17,26.00
2017,08,22,13,18,26.00
2017,08,22,13,19,26.00
2017,08,22,13,20,26.00
2017,08,22,13,21,26.00
2017,08,22,13,22,26.10
2017,08,22,13,23,26.20
2017,08,22,13,24,26.10
2017,08,22,13,25,26.10
2017,08,22,13,26,26.20
2017,08,22,13,27,26.20
2017,08,22,13,28,26.20
2017,08,22,13,29,26.20
2017,08,22,13,30,26.20
2017,08,22,13,31,26.30
2017,08,22,13,32,26.40
2017,08,22,13,33,26.50
2017,08,22,13,34,26.60
2017,08,22,13,35,26.70
2017,08,22,13,36,26.70
2017,08,22,13,37,26.70
2017,08,22,13,38,26.70
2017,08,22,13,39,26.70
2017,08,22,13,40,26.70
2017,08,22,13,41,26.80
2017,08,22,13,42,26.80
2017,08,22,13,43,26.90
2017,08,22,13,44,27.00
2017,08,22,13,45,27.10
2017,08,22,13,46,27.10
2017,08,22,13,47,27.10
2017,08,22,13,48,27.10
2017,08,22,13,49,27.20
2017,08,22,13,50,27.30
2017,08,22,13,51,27.40
2017,08,22,13,52,27.40
2017,08,22,13,53,27.40
2017,08,22,13,54,27.50
2017,08,22,13,55,27.50
2017,08,22,13,56,27.50
2017,08,22,13,57,27.50
2017,08,22,13,58,27.40
2017,08,22,13,59,27.40
2017,08,22,14,00,27.30
2017,08,22,14,01,27.40
2017,08,22,14,02,27.50
2017,08,22,14,03,27.50
2017,08,22,14,04,27.60
2017,08,22,14,05,27.70
2017,08,22,14,06,27.80
2017,08,22,14,07,27.80
2017,08,22,14,08,27.80
2017,08,22,14,09,27.80
2017,08,22,14,10,27.70
2017,08,22,14,11,27.80
2017,08,22,14,12,27.80
2017,08,22,14,13,27.80
2017,08,22,14,14,27.80
2017,08,22,14,15,27.80
2017,08,22,14,16,27.80
2017,08,22,14,17,27.80
2017,08,22,14,18,27.90
2017,08,22,14,19,28.00
2017,08,22,14,20,28.10
2017,08,22,14,21,28.20
2017,08,22,14,22,28.30
2017,08,22,14,23,28.40
2017,08,22,14,24,28.40
2017,08,22,14,25,28.30
2017,08,22,14,26,28.30
2017,08,22,14,27,28.30
2017,08,22,14,28,28.40
2017,08,22,14,29,28.50
2017,08,22,14,30,28.60
2017,08,22,14,31,28.70
2017,08,22,14,32,28.70
2017,08,22,14,33,28.80
2017,08,22,14,34,28.80
2017,08,22,14,35,28.70
2017,08,22,14,36,28.70
2017,08,22,14,37,28.60
2017,08,22,14,38,28.60
2017,08,22,14,39,28.60
2017,08,22,14,40,28.60
2017,08,22,14,41,28.50
2017,08,22,14,42,28.40
2017,08,22,14,43,28.40
2017,08,22,14,44,28.40
2017,08,22,14,45,28.40
2017,08,22,14,46,28.50
2017,08,22,14,47,28.50
2017,08,22,14,48,28.50
2017,08,22,14,49,28.50
2017,08,22,14,50,28.50
2017,08,22,14,51,28.50
2017,08,22,14,52,28.60
2017,08,22,14,53,28.70
2017,08,22,14,54,28.70
2017,08,22,14,55,28.80
2017,08,22,14,56,28.80
2017,08,22,14,57,28.70
2017,08,22,14,58,28.70
2017,08,22,14,59,28.60
2017,08,22,15,00,28.60
2017,08,22,15,01,28.60
2017,08,22,15,02,28.60
2017,08,22,15,03,28.60
2017,08,22,15,04,28.60
2017,08,22,15,05,28.70
2017,08,22,15,06,28.60
2017,08,22,15,07,28.60
2017,08,22,15,08,28.60
2017,08,22,15,09,28.50
2017,08,22,15,10,28.40
2017,08,22,15,11,28.40
2017,08,22,15,12,28.30
2017,08,22,15,13,28.30
2017,08,22,15,14,28.30
2017,08,22,15,15,28.30
2017,08,22,15,16,28.30
2017,08,22,15,17,28.30
2017,08,22,15,18,28.30
2017,08,22,15,19,28.30
2017,08,22,15,20,28.40
2017,08,22,15,21,28.40
2017,08,22,15,22,28.40
2017,08,22,15,23,28.40
2017,08,22,15,24,28.40
2017,08,22,15,25,28.40
2017,08,22,15,26,28.40
2017,08,22,15,27,28.40
2017,08,22,15,28,28.40
2017,08,22,15,29,28.40
2017,08,22,15,30,28.30
2017,08,22,15,31,28.30
2017,08,22,15,32,28.30
2017,08,22,15,33,28.30
2017,08,22,15,34,28.30
2017,08,22,15,35,28.30
2017,08,22,15,36,28.30
2017,08,22,15,37,28.20
2017,08,22,15,38,28.10
2017,08,22,15,39,28.00
2017,08,22,15,40,28.00
2017,08,22,15,41,28.00
2017,08,22,15,42,27.90
2017,08,22,15,43,27.90
2017,08,22,15,44,27.80
2017,08,22,15,45,27.80
2017,08,22,15,46,27.70
2017,08,22,15,47,27.70
2017,08,22,15,48,27.70
2017,08,22,15,49,27.70
2017,08,22,15,50,27.60
2017,08,22,15,51,27.40
2017,08,22,15,52,27.30
2017,08,22,15,53,27.20
2017,08,22,15,54,27.20
2017,08,22,15,55,27.10
2017,08,22,15,56,27.10
2017,08,22,15,57,27.10
2017,08,22,15,58,27.10
2017,08,22,15,59,27.10
2017,08,22,16,00,27.10
2017,08,22,16,01,27.00
2017,08,22,16,02,27.00
2017,08,22,16,03,27.10
2017,08,22,16,04,27.10
2017,08,22,16,05,27.20
2017,08,22,16,06,27.30
2017,08,22,16,07,27.30
2017,08,22,16,08,27.40
2017,08,22,16,09,27.40
2017,08,22,16,10,27.40
2017,08,22,16,11,27.30
2017,08,22,16,12,27.30
2017,08,22,16,13,27.30
2017,08,22,16,14,27.30
2017,08,22,16,15,27.30
2017,08,22,16,16,27.40
2017,08,22,16,17,27.50
2017,08,22,16,18,27.50
2017,08,22,16,19,27.60
2017,08,22,16,20,27.70
2017,08,22,16,21,27.80
2017,08,22,16,22,27.90
2017,08,22,16,23,27.90
2017,08,22,16,24,28.00
2017,08,22,16,25,28.10
2017,08,22,16,26,28.20
2017,08,22,16,27,28.30
2017,08,22,16,28,28.30
2017,08,22,16,29,28.40
2017,08,22,16,30,28.40
2017,08,22,16,31,28.40
2017,08,22,16,32,28.50
2017,08,22,16,33,28.50
2017,08,22,16,34,28.60
2017,08,22,16,35,28.60
2017,08,22,16,36,28.60
2017,08,22,16,37,28.70
2017,08,22,16,38,28.70
2017,08,22,16,39,28.70
2017,08,22,16,40,28.80
2017,08,22,16,41,28.90
2017,08,22,16,42,28.90
2017,08,22,16,43,29.00
2017,08,22,16,44,29.10
2017,08,22,16,45,29.10
2017,08,22,16,46,29.10
2017,08,22,16,47,29.10
2017,08,22,16,48,29.00
2017,08,22,16,49,28.90
2017,08,22,16,50,28.90
2017,08,22,16,51,28.80
2017,08,22,16,52,28.70
2017,08,22,16,53,28.70
2017,08,22,16,54,28.60
2017,08,22,16,55,28.50
2017,08,22,16,56,28.40
2017,08,22,16,57,28.40
2017,08,22,16,58,28.40
2017,08,22,16,59,28.40
2017,08,22,17,00,28.40
2017,08,22,17,01,28.40
2017,08,22,17,02,28.40
2017,08,22,17,03,28.40
2017,08,22,17,04,28.40
2017,08,22,17,05,28.40
2017,08,22,17,06,28.50
2017,08,22,17,07,28.60
2017,08,22,17,08,28.70
2017,08,22,17,09,28.80
2017,08,22,17,10,28.80
2017,08,22,17,11,28.90
2017,08,22,17,12,29.10
2017,08,22,17,13,29.20
2017,08,22,17,14,29.30
2017,08,22,17,15,29.30
2017,08,22,17,16,29.40
2017,08,22,17,17,29.40
2017,08,22,17,18,29.50
2017,08,22,17,19,29.50